Regional Weather Roundup
Issued by NWS Cleveland, OH

Home | Current Version | Previous Version | Text Only | Print | Product List | Glossary Off
Versions: 1 2 3 4 5 6 7 8 9 10 11 12 13 14 15 16 17 18 19 20 21 22 23 24 25 26 27 28 29 30 31 32 33 34 35 36 37 38 39 40 41 42 43 44 45 46 47 48 49 50

000
ASUS41 KCLE 190000
RWRCLE
OHIO REGIONAL WEATHER ROUNDUP
NATIONAL WEATHER SERVICE WILMINGTON, OH
800 PM EDT SAT APR 18 2015

NOTE: "FAIR" INDICATES FEW OR NO CLOUDS BELOW 12,000 FEET WITH NO
SIGNIFICANT WEATHER AND/OR OBSTRUCTIONS TO VISIBILITY.

OHZ001>008-015>018-024>027-034-035-043-044-190100-
   NORTHWEST OHIO

CITY           SKY/WX    TMP DP  RH WIND       PRES   REMARKS
DEFIANCE       MOCLDY    62  26  25 E17       30.05S
FINDLAY        CLOUDY    62  32  32 NE16      30.04F
TOLEDO EXPRESS MOCLDY    59  20  22 E14       30.08F
TOLEDO EXEC    MOCLDY    58  28  32 NE9       30.10S
LIMA           CLOUDY    63  39  41 NE16      30.02F
$$

OHZ009>014-019>023-028>033-038-089-190100-
   NORTHEAST OHIO

CITY           SKY/WX    TMP DP  RH WIND       PRES   REMARKS
CLE-HOPKINS    MOCLDY    59  31  34 N7        30.11R
CLE-LAKEFRONT  PTCLDY    52  39  61 CALM      30.09R
CUY CO. ARPT   MOCLDY    61  37  41 NE7       30.10R
LORAIN-ELYRIA  PTCLDY    58  37  45 NE8       30.10R
ASHTABULA      MOCLDY    60  32  34 N3        30.10R
AKRON-CANTON   MOCLDY    64  41  42 N10       30.07R
WOOSTER        NOT AVBL
MANSFIELD      MOCLDY    61  36  39 N8        30.07R
YOUNGSTOWN     MOCLDY    62  39  42 N9        30.08R
$$

OHZ042-051>053-060>062-070>072-077>081-190100-
  SOUTHWEST OHIO

CITY           SKY/WX    TMP DP  RH WIND       PRES   REMARKS
CINC-COVINGTON MOCLDY    74  46  36 E12       29.96S
CINC-LUNKEN    PTCLDY    72  48  42 E7        29.96S
HAMILTON       MOCLDY    72  50  45 E7        29.97S
DAYTON         NOT AVBL
WRIGHT-PAT AFB CLOUDY    73  46  38 E2        29.97F
DAYTON GENERAL CLOUDY    72  47  40 E3        29.97F
WILMINGTON     CLOUDY    70  47  43 E3        29.98S
$$

OHZ036-037-039>041-045>050-054>059-063>069-073>076-082>088-190100-
  CENTRAL AND SOUTHEAST OHIO

CITY           SKY/WX    TMP DP  RH WIND       PRES   REMARKS
COLUMBUS       CLOUDY    72  45  37 NE14      29.97F
OSU AIRPORT    CLOUDY    72  45  37 NE10      29.97F
BOLTON FIELD   NOT AVBL
RICKENBACK AFB NOT AVBL
NEWARK         CLOUDY    73  44  35 E7        29.99S
MARION         MOCLDY    63  44  50 NE16      30.03F
LANCASTER      CLOUDY    70  46  42 E8        29.98F
ZANESVILLE     CLOUDY    70  44  39 N7        30.00S
NEW PHILLY     MOCLDY    72  44  36 N6        30.04R
$$


USA.gov is the U.S. government's official web portal to all federal, state and local government web resources and services.